Time,TemperatureF,DewpointF,PressureIn,WindDirection,WindDirectionDegrees,WindSpeedMPH,WindSpeedGustMPH,Humidity,HourlyPrecipIn,Conditions,Clouds,dailyrainin,SoftwareType,DateUTC
2013-07-25 00:02:00,62.0,52.0,29.92,NNE,22,3.0,-999.0,71,-99.99,,,-99.99,,2013-07-25 04:02:00,
2013-07-25 00:12:00,62.0,52.0,29.92,NNE,22,3.0,-999.0,71,-99.99,,,-99.99,,2013-07-25 04:12:00,
2013-07-25 00:22:00,62.0,53.0,29.93,NNE,26,2.0,-999.0,72,-99.99,,,-99.99,,2013-07-25 04:22:00,
2013-07-25 00:33:00,61.0,52.0,29.93,NNE,21,3.0,-999.0,73,-99.99,,,-99.99,,2013-07-25 04:33:00,
2013-07-25 00:53:00,61.0,52.0,29.93,NE,35,3.0,-999.0,73,-99.99,,,-99.99,,2013-07-25 04:53:00,
2013-07-25 01:02:00,61.0,53.0,29.94,NE,47,2.0,-999.0,74,-99.99,,,-99.99,,2013-07-25 05:02:00,
2013-07-25 01:22:00,61.0,53.0,29.95,NNE,17,2.0,-999.0,74,-99.99,,,-99.99,,2013-07-25 05:22:00,
2013-07-25 01:32:00,60.0,52.0,29.95,NE,36,3.0,-999.0,75,-99.99,,,-99.99,,2013-07-25 05:32:00,
2013-07-25 01:43:00,60.0,52.0,29.95,NE,35,3.0,-999.0,76,-99.99,,,-99.99,,2013-07-25 05:43:00,
2013-07-25 01:52:00,60.0,52.0,29.95,NE,35,3.0,-999.0,76,-99.99,,,-99.99,,2013-07-25 05:52:00,
2013-07-25 02:02:00,60.0,52.0,29.95,NE,40,3.0,-999.0,76,-99.99,,,-99.99,,2013-07-25 06:02:00,
2013-07-25 02:22:00,60.0,53.0,29.94,NE,35,3.0,-999.0,77,-99.99,,,-99.99,,2013-07-25 06:22:00,
2013-07-25 02:32:00,60.0,53.0,29.94,ENE,71,4.0,-999.0,79,-99.99,,,-99.99,,2013-07-25 06:32:00,
2013-07-25 02:52:00,60.0,54.0,29.94,NNE,12,4.0,-999.0,80,-99.99,,,-99.99,,2013-07-25 06:52:00,
2013-07-25 03:02:00,59.0,53.0,29.95,ENE,58,2.0,-999.0,81,-99.99,,,-99.99,,2013-07-25 07:02:00,
2013-07-25 03:12:00,59.0,53.0,29.95,NE,40,3.0,-999.0,81,-99.99,,,-99.99,,2013-07-25 07:12:00,
2013-07-25 03:22:00,59.0,53.0,29.95,NE,40,3.0,-999.0,81,-99.99,,,-99.99,,2013-07-25 07:22:00,
2013-07-25 03:33:00,59.0,53.0,29.95,NE,35,3.0,-999.0,81,-99.99,,,-99.99,,2013-07-25 07:33:00,
2013-07-25 03:43:00,59.0,53.0,29.95,NE,41,2.0,-999.0,80,-99.99,,,-99.99,,2013-07-25 07:43:00,
2013-07-25 03:53:00,59.0,53.0,29.95,NE,41,2.0,-999.0,80,-99.99,,,-99.99,,2013-07-25 07:53:00,
2013-07-25 04:02:00,59.0,53.0,29.95,NE,53,3.0,-999.0,80,-99.99,,,-99.99,,2013-07-25 08:02:00,
2013-07-25 04:22:00,59.0,52.0,29.95,North,359,3.0,-999.0,79,-99.99,,,-99.99,,2013-07-25 08:22:00,
2013-07-25 04:32:00,59.0,52.0,29.96,ENE,59,2.0,-999.0,79,-99.99,,,-99.99,,2013-07-25 08:32:00,
2013-07-25 04:44:00,58.0,51.0,29.96,NNW,348,5.0,-999.0,78,-99.99,,,-99.99,,2013-07-25 08:44:00,
2013-07-25 04:52:00,58.0,51.0,29.96,NNW,348,5.0,-999.0,78,-99.99,,,-99.99,,2013-07-25 08:52:00,
2013-07-25 05:02:00,58.0,51.0,29.97,NE,36,3.0,-999.0,77,-99.99,,,-99.99,,2013-07-25 09:02:00,
2013-07-25 05:12:00,58.0,50.0,29.98,NE,35,3.0,-999.0,76,-99.99,,,-99.99,,2013-07-25 09:12:00,
2013-07-25 05:22:00,58.0,50.0,29.98,NE,35,3.0,-999.0,76,-99.99,,,-99.99,,2013-07-25 09:22:00,
2013-07-25 05:43:00,57.0,50.0,29.98,NE,39,4.0,-999.0,76,-99.99,,,-99.99,,2013-07-25 09:43:00,
2013-07-25 05:53:00,57.0,50.0,29.98,NE,39,4.0,-999.0,76,-99.99,,,-99.99,,2013-07-25 09:53:00,
2013-07-25 06:03:00,57.0,49.0,29.98,NE,47,3.0,-999.0,75,-99.99,,,-99.99,,2013-07-25 10:03:00,
2013-07-25 06:12:00,57.0,49.0,29.98,NE,47,3.0,-999.0,75,-99.99,,,-99.99,,2013-07-25 10:12:00,
2013-07-25 06:22:00,57.0,48.0,29.99,NE,50,3.0,-999.0,73,-99.99,,,-99.99,,2013-07-25 10:22:00,
2013-07-25 06:32:00,57.0,48.0,29.99,ENE,58,4.0,-999.0,73,-99.99,,,-99.99,,2013-07-25 10:32:00,
2013-07-25 06:53:00,57.0,48.0,29.98,NE,54,5.0,-999.0,72,-99.99,,,-99.99,,2013-07-25 10:53:00,
2013-07-25 07:02:00,57.0,48.0,29.98,NE,54,5.0,-999.0,72,-99.99,,,-99.99,,2013-07-25 11:02:00,
2013-07-25 07:22:00,56.0,47.0,29.99,NNE,27,4.0,-999.0,72,-99.99,,,-99.99,,2013-07-25 11:22:00,
2013-07-25 07:32:00,56.0,47.0,30.00,NE,47,2.0,-999.0,72,-99.99,,,-99.99,,2013-07-25 11:32:00,
2013-07-25 07:43:00,56.0,47.0,30.01,NE,50,3.0,-999.0,72,-99.99,,,-99.99,,2013-07-25 11:43:00,
2013-07-25 07:52:00,56.0,47.0,30.01,NE,50,3.0,-999.0,72,-99.99,,,-99.99,,2013-07-25 11:52:00,
2013-07-25 08:23:00,56.0,47.0,30.01,NNE,20,4.0,-999.0,72,-99.99,,,-99.99,,2013-07-25 12:23:00,
2013-07-25 08:32:00,56.0,47.0,30.02,NE,55,4.0,-999.0,72,-99.99,,,-99.99,,2013-07-25 12:32:00,
2013-07-25 08:45:00,56.0,47.0,30.02,NE,43,4.0,-999.0,73,-99.99,,,-99.99,,2013-07-25 12:45:00,
2013-07-25 08:53:00,56.0,47.0,30.02,NE,43,4.0,-999.0,73,-99.99,,,-99.99,,2013-07-25 12:53:00,
2013-07-25 09:03:00,56.0,47.0,30.02,NE,43,4.0,-999.0,73,-99.99,,,-99.99,,2013-07-25 13:03:00,
2013-07-25 09:12:00,57.0,48.0,30.03,NE,36,3.0,-999.0,73,-99.99,,,-99.99,,2013-07-25 13:12:00,
2013-07-25 09:22:00,57.0,48.0,30.04,NE,43,4.0,-999.0,73,-99.99,,,-99.99,,2013-07-25 13:22:00,
2013-07-25 09:43:00,57.0,49.0,30.03,NE,41,4.0,-999.0,74,-99.99,,,-99.99,,2013-07-25 13:43:00,
2013-07-25 09:53:00,57.0,49.0,30.03,NE,42,1.0,-999.0,74,-99.99,,,-99.99,,2013-07-25 13:53:00,
2013-07-25 10:02:00,57.0,50.0,30.04,NE,43,3.0,-999.0,76,-99.99,,,-99.99,,2013-07-25 14:02:00,
2013-07-25 10:12:00,57.0,50.0,30.04,NE,43,3.0,-999.0,76,-99.99,,,-99.99,,2013-07-25 14:12:00,
2013-07-25 10:33:00,57.0,50.0,30.05,NNE,33,1.0,-999.0,77,-99.99,,,-99.99,,2013-07-25 14:33:00,
2013-07-25 10:43:00,57.0,50.0,30.04,East,90,1.0,-999.0,77,-99.99,,,-99.99,,2013-07-25 14:43:00,
2013-07-25 10:53:00,57.0,50.0,30.04,East,90,1.0,-999.0,77,-99.99,,,-99.99,,2013-07-25 14:53:00,
2013-07-25 11:02:00,58.0,50.0,30.05,ENE,77,2.0,-999.0,76,-99.99,,,-99.99,,2013-07-25 15:02:00,
2013-07-25 11:12:00,58.0,50.0,30.05,ENE,77,2.0,-999.0,76,-99.99,,,-99.99,,2013-07-25 15:12:00,
2013-07-25 11:22:00,58.0,51.0,30.06,NE,52,3.0,-999.0,77,-99.99,,,-99.99,,2013-07-25 15:22:00,
2013-07-25 11:32:00,57.0,50.0,30.06,ENE,78,2.0,-999.0,77,-99.99,,,-99.99,,2013-07-25 15:32:00,
2013-07-25 12:02:00,58.0,51.0,30.06,NE,37,1.0,-999.0,77,-99.99,,,-99.99,,2013-07-25 16:02:00,
2013-07-25 12:23:00,59.0,51.0,30.06,NE,42,2.0,-999.0,75,-99.99,,,-99.99,,2013-07-25 16:23:00,
2013-07-25 12:45:00,59.0,52.0,30.08,NNE,29,2.0,-999.0,78,-99.99,,,-99.99,,2013-07-25 16:45:00,
2013-07-25 12:53:00,59.0,52.0,30.08,NNE,29,2.0,-999.0,78,-99.99,,,-99.99,,2013-07-25 16:53:00,
2013-07-25 13:12:00,59.0,52.0,30.08,North,8,0.0,-999.0,78,-99.99,,,-99.99,,2013-07-25 17:12:00,
2013-07-25 13:22:00,59.0,52.0,30.07,NNE,12,1.0,-999.0,78,-99.99,,,-99.99,,2013-07-25 17:22:00,
2013-07-25 13:43:00,59.0,52.0,30.06,NE,56,3.0,-999.0,77,-99.99,,,-99.99,,2013-07-25 17:43:00,
2013-07-25 13:53:00,59.0,52.0,30.06,NE,56,3.0,-999.0,77,-99.99,,,-99.99,,2013-07-25 17:53:00,
2013-07-25 14:02:00,60.0,52.0,30.06,ENE,75,2.0,-999.0,76,-99.99,,,-99.99,,2013-07-25 18:02:00,
2013-07-25 14:22:00,61.0,53.0,30.06,North,349,5.0,-999.0,74,-99.99,,,-99.99,,2013-07-25 18:22:00,
2013-07-25 14:33:00,60.0,53.0,30.06,North,10,2.0,-999.0,77,-99.99,,,-99.99,,2013-07-25 18:33:00,
2013-07-25 14:43:00,61.0,54.0,30.05,NE,39,1.0,-999.0,77,-99.99,,,-99.99,,2013-07-25 18:43:00,
2013-07-25 14:52:00,61.0,54.0,30.05,NE,39,1.0,-999.0,77,-99.99,,,-99.99,,2013-07-25 18:52:00,
2013-07-25 15:03:00,60.0,53.0,30.06,NNE,12,1.0,-999.0,77,-99.99,,,-99.99,,2013-07-25 19:03:00,
2013-07-25 15:23:00,61.0,54.0,30.06,NE,35,2.0,-999.0,77,-99.99,,,-99.99,,2013-07-25 19:23:00,
2013-07-25 15:43:00,62.0,54.0,30.07,NNE,23,1.0,-999.0,76,-99.99,,,-99.99,,2013-07-25 19:43:00,
2013-07-25 15:52:00,62.0,54.0,30.07,NNE,23,1.0,-999.0,76,-99.99,,,-99.99,,2013-07-25 19:52:00,
2013-07-25 16:03:00,62.0,54.0,30.07,North,359,1.0,-999.0,76,-99.99,,,-99.99,,2013-07-25 20:03:00,
2013-07-25 16:12:00,62.0,55.0,30.07,NNE,22,0.0,-999.0,77,-99.99,,,-99.99,,2013-07-25 20:12:00,
2013-07-25 16:22:00,62.0,55.0,30.07,NNE,22,0.0,-999.0,77,-99.99,,,-99.99,,2013-07-25 20:22:00,
2013-07-25 16:53:00,62.0,55.0,30.06,NE,35,0.0,-999.0,77,-99.99,,,-99.99,,2013-07-25 20:53:00,
2013-07-25 17:03:00,62.0,55.0,30.05,NNE,25,0.0,-999.0,78,-99.99,,,-99.99,,2013-07-25 21:03:00,
2013-07-25 17:22:00,63.0,56.0,30.04,East,86,1.0,-999.0,78,-99.99,,,-99.99,,2013-07-25 21:22:00,
2013-07-25 17:44:00,63.0,56.0,30.05,NNE,17,1.0,-999.0,78,-99.99,,,-99.99,,2013-07-25 21:44:00,
2013-07-25 17:52:00,63.0,56.0,30.05,NNE,17,1.0,-999.0,78,-99.99,,,-99.99,,2013-07-25 21:52:00,
2013-07-25 18:02:00,63.0,56.0,30.04,NNE,18,3.0,-999.0,78,-99.99,,,-99.99,,2013-07-25 22:02:00,
2013-07-25 18:22:00,63.0,57.0,30.04,East,90,1.0,-999.0,80,-99.99,,,-99.99,,2013-07-25 22:22:00,
2013-07-25 18:32:00,63.0,57.0,30.05,NE,52,0.0,-999.0,80,-99.99,,,-99.99,,2013-07-25 22:32:00,
2013-07-25 18:43:00,63.0,57.0,30.05,ENE,71,0.0,-999.0,81,-99.99,,,-99.99,,2013-07-25 22:43:00,
2013-07-25 18:52:00,63.0,57.0,30.05,ENE,71,0.0,-999.0,81,-99.99,,,-99.99,,2013-07-25 22:52:00,
2013-07-25 19:02:00,62.0,56.0,30.06,NE,51,0.0,-999.0,81,-99.99,,,-99.99,,2013-07-25 23:02:00,
2013-07-25 19:22:00,62.0,56.0,30.06,NNE,31,0.0,-999.0,81,-99.99,,,-99.99,,2013-07-25 23:22:00,
2013-07-25 19:32:00,62.0,56.0,30.06,NNE,20,1.0,-999.0,82,-99.99,,,-99.99,,2013-07-25 23:32:00,
2013-07-25 19:43:00,61.0,56.0,30.06,NE,52,1.0,-999.0,83,-99.99,,,-99.99,,2013-07-25 23:43:00,
2013-07-25 19:52:00,61.0,56.0,30.06,NE,52,1.0,-999.0,83,-99.99,,,-99.99,,2013-07-25 23:52:00,
2013-07-25 20:02:00,61.0,56.0,30.06,North,10,1.0,-999.0,83,-99.99,,,-99.99,,2013-07-26 00:02:00,
2013-07-25 20:22:00,61.0,56.0,30.06,NE,37,1.0,-999.0,84,-99.99,,,-99.99,,2013-07-26 00:22:00,
2013-07-25 20:33:00,61.0,57.0,30.06,North,359,1.0,-999.0,86,-99.99,,,-99.99,,2013-07-26 00:33:00,
2013-07-25 20:43:00,60.0,56.0,30.07,NNE,15,0.0,-999.0,87,-99.99,,,-99.99,,2013-07-26 00:43:00,
2013-07-25 20:52:00,60.0,56.0,30.07,NNE,15,0.0,-999.0,87,-99.99,,,-99.99,,2013-07-26 00:52:00,
2013-07-25 21:02:00,60.0,56.0,30.07,NE,44,1.0,-999.0,88,-99.99,,,-99.99,,2013-07-26 01:02:00,
2013-07-25 21:22:00,59.0,56.0,30.06,North,354,1.0,-999.0,89,-99.99,,,-99.99,,2013-07-26 01:22:00,
2013-07-25 21:33:00,59.0,56.0,30.07,ENE,58,1.0,-999.0,90,-99.99,,,-99.99,,2013-07-26 01:33:00,
2013-07-25 21:52:00,59.0,56.0,30.07,NE,39,0.0,-999.0,90,-99.99,,,-99.99,,2013-07-26 01:52:00,
2013-07-25 22:02:00,59.0,56.0,30.06,NE,48,0.0,-999.0,91,-99.99,,,-99.99,,2013-07-26 02:02:00,
2013-07-25 22:22:00,59.0,56.0,30.06,ENE,71,1.0,-999.0,91,-99.99,,,-99.99,,2013-07-26 02:22:00,
2013-07-25 22:43:00,58.0,55.0,30.05,NNE,16,1.0,-999.0,91,-99.99,,,-99.99,,2013-07-26 02:43:00,
2013-07-25 22:52:00,58.0,55.0,30.05,NNE,16,1.0,-999.0,91,-99.99,,,-99.99,,2013-07-26 02:52:00,
2013-07-25 23:02:00,58.0,55.0,30.05,NNE,31,1.0,-999.0,91,-99.99,,,-99.99,,2013-07-26 03:02:00,
2013-07-25 23:12:00,58.0,55.0,30.05,NNE,31,1.0,-999.0,91,-99.99,,,-99.99,,2013-07-26 03:12:00,
2013-07-25 23:22:00,58.0,55.0,30.06,NE,39,1.0,-999.0,91,-99.99,,,-99.99,,2013-07-26 03:22:00,
2013-07-25 23:33:00,58.0,56.0,30.06,NE,38,1.0,-999.0,92,-99.99,,,-99.99,,2013-07-26 03:33:00,
2013-07-25 23:44:00,59.0,57.0,30.05,North,359,2.0,-999.0,92,-99.99,,,-99.99,,2013-07-26 03:44:00,
2013-07-25 23:53:00,59.0,57.0,30.05,North,359,2.0,-999.0,92,-99.99,,,-99.99,,2013-07-26 03:53:00,